Weather in Lenino-Kokushkino

Russia / Republic of Tatarstan     55°49′30″N   49°41′02″E
temp.,
°C
wind,
m/s
gust,
m/s
humid.,
%
clouds,
%
prec.,
mm/h
press.,
hPa
HPBL,
m
13 april, tue
tue1300:00+6ese399099 0.0 1037199
03:00+5se3895100 0.0 1037144
06:00+6se25100100 0.0 1036154
09:00+8sse3596100 0.0 1036256
12:00+14sse4574100 0.0 1035424
15:00+16sse466475 0.0 1033583
18:00+13sse337687 0.0 103244
21:00+11s338487 0.0 103229
14 april, wed
wed1400:00+9s338913 0.0 103126
03:00+8s33855 0.0 103118
06:00+8sse33825 0.0 103145
09:00+13sse45615 0.0 1030334
12:00+17sse56505 0.0 1028739
15:00+18sse56555 0.0 1027958
18:00+14se35725 0.0 1025120
21:00+11sse34835 0.0 102554
15 april, thu
thu1500:00+10s34873 0.0 102451
03:00+9sse33890 0.0 102327
06:00+9s36910 0.0 1022121
09:00+14ssw46672 0.0 1021410
12:00+17ssw455348 0.0 10201015
15:00+17ssw454628 0.0 10191476
18:00+15sw2258100 0.0 101919
21:00+12wsw1164100 0.0 101910
16 april, fri
fri1600:00+11nnw2267100 0.0 101919
03:00+8ne51090100 0.0 1020271
06:00+7ne51087100 0.0 1022431
09:00+9ene677598 0.0 1023714
12:00+12ene566099 0.0 1024984
15:00+13ne56518 0.0 10241208
18:00+10ne585436 0.0 1024302
21:00+7ne511566 0.0 1026261
17 april, sat
sat1700:00+4ne38646 0.0 1026156
03:00+2ne36695 0.0 1027100
06:00+2nne38685 0.0 1028200
09:00+8ne454625 0.0 1028824
12:00+10nne45371 0.0 10271457
15:00+11nne45365 0.0 10261563
18:00+9n344814 0.0 102695
21:00+5nnw22581 0.0 102622